Regional Weather Roundup
Issued by NWS Sterling, VA

Home | Current Version | Previous Version | Text Only | Print | Product List | Glossary Off
Versions: 1 2 3 4 5 6 7 8 9 10 11 12 13 14 15 16 17 18 19 20 21 22 23 24 25 26 27 28 29 30 31 32 33 34 35 36 37 38 39 40 41 42 43 44 45 46 47 48 49 50

000
ASUS41 KLWX 281110
RWRLWX

REGIONAL WEATHER ROUNDUP
NATIONAL WEATHER SERVICE BALTIMORE MD/WASHINGTON DC
600 AM EST FRI NOV 28 2014

Note: "FAIR" indicates few or no clouds below 12,000 feet
with no significant weather and/or obstructions to visibility.
 TC=TEMPERATURE CELSIUS

 * =Non NWS site. Station does not report precipitation (e.g. rain,
    snow, etc.), thunder, or fog.

DCZ001-MDZ009-015-VAZ040>042-051-053>054-281200-
WASHINGTON METRO

CITY           SKY/WX    TMP DP  RH WIND       PRES   REMARKS
WASHINGTON NAT CLEAR     35  20  54 NW9       30.26R WCI  28
DULLES         PTCLDY    31  22  69 W8        30.26R WCI  23
ANDREWS AFB    CLEAR     32  21  62 W9        30.23R WCI  24
FT BELVOIR     CLEAR     33  21  60 W8        30.27R WCI  26
QUANTICO       CLEAR     33  21  61 NW10      30.29R WCI  25
COLLEGE PARK*  CLEAR     32  23  69 W7        30.23R
LEESBURG*      CLOUDY    34  28  80 W8        30.26R WCI  27
MANASSAS*      CLEAR     32  25  74 NW10G18   30.27R WCI  24
GAITHERSBURG*  CLEAR     30  19  64 W12       30.25R WCI  21

$$

MDZ006>007-011-014-281200-
BALTIMORE METRO

CITY           SKY/WX    TMP DP  RH WIND       PRES   REMARKS
BWI AIRPORT    CLEAR     31  22  69 W10       30.21R WCI  22
MD SCIENCE CTR   N/A     33  22  63 MISG      30.21R
MARTIN STATE   CLEAR     34  27  75 W13G18      N/A  WCI  25
ANNAPOLIS      CLEAR     33  22  63 W6        30.22R

$$

MDZ012-015-019>023-281200-
MARYLAND EASTERN SHORE

CITY           SKY/WX    TMP DP  RH WIND       PRES   REMARKS
OCEAN CITY     CLEAR     33  24  69 NW6       30.20R
SALISBURY      CLEAR     34  24  67 W6        30.21R
BAY BRIDGE AP*   N/A     34  23  64 W9        30.23R WCI  26
CAMBRIDGE*     CLEAR     36  25  64 NW10G16   30.22R WCI  28
EASTON*        CLEAR     36  27  69 NW8       30.26R

$$

MDZ017>025-281200-
SOUTHERN MARYLAND

CITY           SKY/WX    TMP DP  RH WIND       PRES   REMARKS
PATUXENT RIVER PTCLDY    33  22  63 W8        30.24R WCI  26
ST INIGOES     CLEAR     33  21  61 NW3       30.25R
LEONARDTOWN*   CLEAR     32  21  64 W7        30.25R

$$

MDZ003>005-281200-
NORTH CENTRAL MARYLAND

CITY           SKY/WX    TMP DP  RH WIND       PRES   REMARKS
FREDERICK*     NOT AVBL
HAGERSTOWN APT CLOUDY    32  21  64 W13       30.21R WCI  22
WESTMINSTER*   CLEAR     28  25  86 NW8       30.18R WCI  20

$$

MDZ501>502-281200-
WESTERN MARYLAND

CITY           SKY/WX    TMP DP  RH WIND       PRES   REMARKS
OAKLAND*       CLOUDY    19 N/A N/A W9G24     30.14R FOG     WCI   9
CUMBERLAND*    PTCLDY    32  19  59 NW10G17   30.30R WCI  24

$$

VAZ025>031-281200-
SHENANDOAH VALLEY

CITY           SKY/WX    TMP DP  RH WIND       PRES   REMARKS
WINCHESTER*    MOCLDY    32  21  64 W8        30.24R WCI  25
FRONT ROYAL*   CLOUDY    32  19  59 NW6       30.24R
LURAY*         PTSUNNY   32  23  69 SW6       30.25R
NEW MARKET*    PTSUNNY   28  24  84 W6        30.25S
STAUNTON*      CLEAR     29  18  62 W7        30.26R
WAYNESBORO*    FAIR      24  16  71 CALM      30.24R

$$

WVZ021-048>050-054>055-281200-
EASTERN WEST VIRGINIA PANHANDLE

CITY           SKY/WX    TMP DP  RH WIND       PRES   REMARKS
MARTINSBURG    CLOUDY    33  18  53 W9        30.24R WCI  25
PETERSBURG*    LGT SNOW  29  24  82 NW7       30.28R

$$

VAZ036>039-050-281200-
CENTRAL FOOTHILLS

CITY           SKY/WX    TMP DP  RH WIND       PRES   REMARKS
CHARLOTTESVILL PTCLDY    31  18  58 CALM      30.26R
CULPEPER*      MOCLDY    28  25  86 CALM      30.28R
ORANGE*        CLOUDY    32  27  80 SE3       30.28R
GORDONSVILLE*  PTSUNNY   29  23  76 CALM      30.26S
WARRENTON*     FAIR      31  26  82 W3        30.26R

$$

VAZ055>057-281200-
NORTH AND CENTRAL PIEDMONT

CITY           SKY/WX    TMP DP  RH WIND       PRES   REMARKS
FREDERICKSBRG* CLEAR     31  23  73 W3        30.27R
STAFFORD*      CLEAR     30  19  62 CALM      30.32R

$$

NCZ024-NYZ072-PAZ021-071-VAZ022-071-281200-
OTHER REGIONAL OBSERVATIONS

CITY           SKY/WX    TMP DP  RH WIND       PRES   REMARKS
NEW YORK CITY  PTCLDY    31  21  66 VRB3      30.12R
PHILADELPHIA   PTCLDY    34  22  61 W9        30.17R WCI  27
PITTSBURGH     LGT SNOW  26  21  81 NW12      30.26S WCI  16
ROANOKE        MOCLDY    31  14  49 W7        30.30R
RICHMOND       CLEAR     30  24  78 NW5       30.27R
RALEIGH        CLEAR     30  21  69 CALM      30.31R

$$

ANZ530>537-281200-
MARINE OBSERVATIONS

STATION/POSITION TIME  TEMP    WIND        PRES
                       AIR SEA DIR/SP/G
                 (UTC) (F)     (DEG/KT/KT) (MB)
THOMAS PT LIGHT  1100   35 46  290/ 15/ 16 1024.6R
BALT KEY BRIDGE  1100   35     270/ 10/ 11 1022.9R
COVE POINT       1100   33     320/  7/ 10 1023.7R
LEWISETTA        1100   37 46  330/ 11/ 15 1024.1R
SOLOMONS ISLAND  1100      48                N/A
PINEY POINT      1100          340/ 22/ 25   N/A

$$




USA.gov is the U.S. government's official web portal to all federal, state and local government web resources and services.